Tracking 25954 objects as of 14-Aug-2022
HD Live streaming from Space Station
objects crossing your sky now

ONEWEB-0292

Track ONEWEB-0292 now!
10-day predictions
ONEWEB-0292 is classified as:


NORAD ID: 49186
Int'l Code: 2021-083A
Perigee: 1,215.4 km
Apogee: 1,218.4 km
Inclination: 87.9 °
Period: 109.6 minutes
Semi major axis: 7587 km
RCS: Unknown
Launch date: September 14, 2021
Source: United Kingdom (UK)
Launch site: TYURATAM MISSILE AND SPACE COMPLEX (TTMTR)
aabbcc
Your satellite tracking list
Your tracking list is empty




NASA's NSSDC Master Catalog

Two Line Element Set (TLE):
1 49186U 21083A   22226.50555814  .00000048  00000-0  97693-4 0  9999
2 49186  87.8948 238.8768 0002014  95.7915 264.3444 13.13470139 48088
Source of the keplerian elements: AFSPC